CAPE
0 0 0 0 0 0 0 0 0 0 0 0 0 0 0 0 0 0 0 0 0 0 0 0 0 0 0 0 0 0 0 0 2 0 12 75 110 239 285 367 178 95 31 2 0 0 0
1 0 0 0 0 0 0 0 0 0 0 0 0 0 0 0 0 0 0 0 0 0 0 0 0 0 0 0 0 0 0 0 0 0 0 16 0 21 252 343 138 12 0 0 1 0 0
1 0 0 0 0 0 0 0 0 0 0 0 0 0 0 0 0 0 0 0 0 0 0 0 0 0 0 0 0 0 0 0 0 0 0 0 0 0 237 264 139 0 0 0 4 0 0
1 0 0 0 0 0 0 0 0 0 0 0 0 0 0 0 0 0 0 0 0 0 0 0 0 0 0 0 0 0 0 0 0 0 8 0 0 45 287 359 108 77 61 117 1 0 0
0 0 0 0 0 0 0 0 0 0 0 0 0 0 0 0 0 0 0 0 0 0 0 0 0 0 0 0 0 0 0 0 0 0 0 0 0 21 128 388 250 123 60 31 131 1 0
1 1 0 0 0 0 0 0 0 0 0 0 0 0 0 0 0 0 0 0 0 0 0 0 0 0 0 0 0 0 0 0 0 0 0 0 0 0 105 201 5 0 0 0 111 234 50
1 1 0 0 0 0 0 0 0 0 0 0 0 0 0 0 0 0 0 0 0 0 0 0 0 0 0 0 0 0 0 0 0 0 0 0 0 18 6 3 0 0 0 1 0 87 204
2 0 0 0 0 0 0 0 0 0 0 0 0 0 0 0 0 0 0 0 0 0 0 0 0 0 0 0 0 0 0 0 0 0 0 0 0 0 0 0 0 0 0 5 12 177 247
0 0 0 0 0 0 0 0 0 0 0 0 0 0 0 0 0 0 0 0 0 0 0 0 0 0 0 0 0 0 0 0 0 0 0 0 0 0 0 0 0 0 0 3 28 268 290
1 0 0 0 0 0 0 0 0 0 0 0 0 0 0 0 0 0 0 0 0 0 0 0 0 0 0 0 0 0 0 0 0 0 0 0 0 0 0 0 0 0 0 0 0 0 43
1 0 0 0 0 0 0 0 0 0 0 0 0 0 0 0 0 0 0 0 0 0 0 0 0 0 0 0 0 0 0 0 0 0 0 0 0 0 0 0 0 0 0 0 0 0 0
0 0 0 0 0 0 0 0 0 0 0 0 0 0 0 0 0 0 0 0 0 0 0 0 0 0 0 0 0 0 0 0 0 0 0 0 0 0 0 0 0 0 0 0 0 0 0
0 0 0 0 0 0 0 0 0 0 0 0 0 0 0 0 0 0 0 0 0 0 0 0 0 0 0 0 0 0 0 0 0 0 0 0 0 0 0 0 0 0 0 0 0 0 0
0 0 0 0 0 0 0 0 0 0 0 0 0 0 0 0 0 0 0 0 0 0 0 0 0 0 0 0 0 0 0 0 0 0 0 0 0 0 0 0 0 0 0 0 0 0 0
0 0 0 0 0 0 0 0 0 0 0 0 0 0 0 0 0 0 0 0 0 0 0 0 0 0 0 0 0 0 0 0 0 0 0 0 0 0 0 0 0 0 0 0 0 0 0
2 0 0 0 0 0 0 0 0 0 0 0 0 0 0 0 0 0 0 0 0 0 0 0 0 0 0 0 0 0 0 0 0 0 0 0 0 0 0 0 0 0 0 0 0 0 0
2 1 0 0 0 0 0 0 0 0 0 0 0 0 0 0 0 0 0 0 0 0 0 0 0 0 0 0 0 0 0 0 0 0 0 0 0 0 0 0 0 0 0 0 0 0 0
3 1 1 0 0 0 0 0 0 0 0 0 0 0 0 0 0 0 0 0 0 0 0 0 0 0 0 0 0 0 0 0 0 0 0 0 0 0 0 0 0 0 0 0 0 0 0
0 2 1 0 0 0 0 0 0 0 0 0 0 0 0 0 0 0 0 0 0 0 0 0 0 0 0 0 0 0 0 0 0 0 0 0 0 0 0 0 0 0 0 0 0 0 0
2 2 1 1 1 0 0 0 0 0 0 0 0 0 0 0 0 0 0 0 0 0 0 0 0 0 0 0 0 0 0 0 0 0 0 0 0 0 0 0 0 0 0 0 0 0 0
3 1 1 1 1 0 0 0 0 0 0 0 0 0 0 0 0 0 0 0 0 0 0 0 0 0 0 0 0 0 0 0 0 0 0 0 0 0 0 0 0 0 0 0 0 0 0
1 2 2 1 1 1 0 0 0 0 0 0 0 0 0 0 0 0 0 0 0 0 0 0 0 0 0 0 0 0 0 0 0 0 0 0 0 0 0 0 0 0 0 0 0 0 0
2 2 0 1 1 1 1 0 0 0 0 0 0 0 0 0 0 0 0 0 0 0 0 0 0 0 0 0 0 0 0 0 0 0 0 0 0 0 0 0 0 0 0 0 0 0 0
1 1 1 1 1 1 1 1 0 0 0 0 0 0 0 0 0 0 0 0 0 0 0 0 0 0 0 0 0 0 0 0 0 0 0 0 0 0 0 0 0 0 0 0 0 0 0
0 1 1 1 1 1 1 1 0 0 0 0 0 0 0 0 0 0 0 0 0 0 0 0 0 0 0 0 0 0 0 0 0 0 0 0 0 0 0 0 0 0 0 0 0 0 0
1 0 0 0 1 0 1 1 2 0 0 0 0 0 0 0 0 0 0 0 0 0 0 0 0 0 0 0 0 0 0 0 0 0 0 0 0 0 0 0 0 0 0 0 0 0 0
2 2 2 1 0 1 0 1 2 0 0 0 0 0 0 0 0 0 0 0 0 0 0 0 0 0 0 0 0 0 0 0 0 0 0 0 0 0 0 0 0 0 0 0 0 0 0
2 1 1 2 1 2 0 1 2 1 0 0 0 0 0 0 0 0 0 0 0 0 0 0 0 0 0 0 0 0 0 0 0 0 0 0 0 0 0 0 0 0 0 0 0 0 0
2 3 2 1 3 3 2 1 1 2 0 0 0 0 3 0 0 0 0 0 0 0 0 0 0 0 0 0 0 0 0 1 0 0 3 0 0 0 1 7 37 6 0 0 0 0 0
CIN
-0 -0 -0 -0 -0 -0 -0 -0 -0 -0 -0 -0 -0 -0 -0 -0 -0 -0 -0 -0 -0 -0 -0 -0 -0 -0 -0 -0 -0 -0 -0 -0 -98 -0 -180 -103 -53 -34 -15 -17 -14 -18 -15 -9 -0 -0 -0
-0 -0 -0 -0 -0 -0 -0 -0 -0 -0 -0 -0 -0 -0 -0 -0 -0 -0 -0 -0 -0 -0 -0 -0 -0 -0 -0 -0 -0 -0 -0 -0 -0 -0 -0 -38 -0 -69 -22 -20 -25 -45 -0 -0 -9 -0 -0
-0 -0 -0 -0 -0 -0 -0 -0 -0 -0 -0 -0 -0 -0 -0 -0 -0 -0 -0 -0 -0 -0 -0 -0 -0 -0 -0 -0 -0 -0 -0 -0 -0 -0 -0 -0 -0 -0 -15 -21 -50 -0 -0 -0 -38 -0 -0
-0 -0 -0 -0 -0 -0 -0 -0 -0 -0 -0 -0 -0 -0 -0 -0 -0 -0 -0 -0 -0 -0 -0 -0 -0 -0 -0 -0 -0 -0 -0 -0 -0 -0 -183 -0 -0 -81 -26 -40 -30 -17 -19 -3 -15 -0 -0
-0 -0 -0 -0 -0 -0 -0 -0 -0 -0 -0 -0 -0 -0 -0 -0 -0 -0 -0 -0 -0 -0 -0 -0 -0 -0 -0 -0 -0 -0 -0 -0 -0 -0 -0 -0 -0 -30 -29 -3 -3 -9 -3 -3 -8 -1 -0
-0 -0 -0 -0 -0 -0 -0 -0 -0 -0 -0 -0 -0 -0 -0 -0 -0 -0 -0 -0 -0 -0 -0 -0 -0 -0 -0 -0 -0 -0 -0 -0 -0 -0 -0 -0 -0 -0 -5 -2 -4 -0 -0 -0 -11 -13 -28
-0 -0 -0 -0 -0 -0 -0 -0 -0 -0 -0 -0 -0 -0 -0 -0 -0 -0 -0 -0 -0 -0 -0 -0 -0 -0 -0 -0 -0 -0 -0 -0 -0 -0 -0 -0 -0 -1 -5 -19 -0 -0 -0 -14 -0 -29 -30
-0 -0 -0 -0 -0 -0 -0 -0 -0 -0 -0 -0 -0 -0 -0 -0 -0 -0 -0 -0 -0 -0 -0 -0 -0 -0 -0 -0 -0 -0 -0 -0 -0 -0 -0 -0 -0 -0 -0 -0 -0 -0 -0 -7 -21 -46 -44
-0 -0 -0 -0 -0 -0 -0 -0 -0 -0 -0 -0 -0 -0 -0 -0 -0 -0 -0 -0 -0 -0 -0 -0 -0 -0 -0 -0 -0 -0 -0 -0 -0 -0 -0 -0 -0 -0 -0 -0 -0 -0 -0 -10 -33 -23 -33
-0 -0 -0 -0 -0 -0 -0 -0 -0 -0 -0 -0 -0 -0 -0 -0 -0 -0 -0 -0 -0 -0 -0 -0 -0 -0 -0 -0 -0 -0 -0 -0 -0 -0 -0 -0 -0 -0 -0 -0 -0 -0 -0 -0 -0 -0 -5
-0 -0 -0 -0 -0 -0 -0 -0 -0 -0 -0 -0 -0 -0 -0 -0 -0 -0 -0 -0 -0 -0 -0 -0 -0 -0 -0 -0 -0 -0 -0 -0 -0 -0 -0 -0 -0 -0 -0 -0 -0 -0 -0 -0 -0 -0 -0
-0 -0 -0 -0 -0 -0 -0 -0 -0 -0 -0 -0 -0 -0 -0 -0 -0 -0 -0 -0 -0 -0 -0 -0 -0 -0 -0 -0 -0 -0 -0 -0 -0 -0 -0 -0 -0 -0 -0 -0 -0 -0 -0 -0 -0 -0 -0
-0 -0 -0 -0 -0 -0 -0 -0 -0 -0 -0 -0 -0 -0 -0 -0 -0 -0 -0 -0 -0 -0 -0 -0 -0 -0 -0 -0 -0 -0 -0 -0 -0 -0 -0 -0 -0 -0 -0 -0 -0 -0 -0 -0 -0 -0 -0
-0 -0 -0 -0 -0 -0 -0 -0 -0 -0 -0 -0 -0 -0 -0 -0 -0 -0 -0 -0 -0 -0 -0 -0 -0 -0 -0 -0 -0 -0 -0 -0 -0 -0 -0 -0 -0 -0 -0 -0 -0 -0 -0 -0 -0 -0 -0
-1 -0 -0 -0 -0 -0 -0 -0 -0 -0 -0 -0 -0 -0 -0 -0 -0 -0 -0 -0 -0 -0 -0 -0 -0 -0 -0 -0 -0 -0 -0 -0 -0 -0 -0 -0 -0 -0 -0 -0 -0 -0 -0 -0 -0 -0 -0
-0 -0 -0 -0 -0 -0 -0 -0 -0 -0 -0 -0 -0 -0 -0 -0 -0 -0 -0 -0 -0 -0 -0 -0 -0 -0 -0 -0 -0 -0 -0 -0 -0 -0 -0 -0 -0 -0 -0 -0 -0 -0 -0 -0 -0 -0 -0
-1 -0 -0 -0 -0 -0 -0 -0 -0 -0 -0 -0 -0 -0 -0 -0 -0 -0 -0 -0 -0 -0 -0 -0 -0 -0 -0 -0 -0 -0 -0 -0 -0 -0 -0 -0 -0 -0 -0 -0 -0 -0 -0 -0 -0 -0 -0
-2 -0 -0 -0 -0 -0 -0 -0 -0 -0 -0 -0 -0 -0 -0 -0 -0 -0 -0 -0 -0 -0 -0 -0 -0 -0 -0 -0 -0 -0 -0 -0 -0 -0 -0 -0 -0 -0 -0 -0 -0 -0 -0 -0 -0 -0 -0
-0 -0 -0 -0 -0 -0 -0 -0 -0 -0 -0 -0 -0 -0 -0 -0 -0 -0 -0 -0 -0 -0 -0 -0 -0 -0 -0 -0 -0 -0 -0 -0 -0 -0 -0 -0 -0 -0 -0 -0 -0 -0 -0 -0 -0 -0 -0
-0 -0 -0 -0 -0 -0 -0 -0 -0 -0 -0 -0 -0 -0 -0 -0 -0 -0 -0 -0 -0 -0 -0 -0 -0 -0 -0 -0 -0 -0 -0 -0 -0 -0 -0 -0 -0 -0 -0 -0 -0 -0 -0 -0 -0 -0 -0
-0 -0 -0 -0 -0 -0 -0 -0 -0 -0 -0 -0 -0 -0 -0 -0 -0 -0 -0 -0 -0 -0 -0 -0 -0 -0 -0 -0 -0 -0 -0 -0 -0 -0 -0 -0 -0 -0 -0 -0 -0 -0 -0 -0 -0 -0 -0
-0 -0 -0 -0 -0 -0 -0 -0 -0 -0 -0 -0 -0 -0 -0 -0 -0 -0 -0 -0 -0 -0 -0 -0 -0 -0 -0 -0 -0 -0 -0 -0 -0 -0 -0 -0 -0 -0 -0 -0 -0 -0 -0 -0 -0 -0 -0
-0 -0 -0 -0 -0 -0 -0 -0 -0 -0 -0 -0 -0 -0 -0 -0 -0 -0 -0 -0 -0 -0 -0 -0 -0 -0 -0 -0 -0 -0 -0 -0 -0 -0 -0 -0 -0 -0 -0 -0 -0 -0 -0 -0 -0 -0 -0
-0 -0 -0 -0 -0 -0 -0 -0 -0 -0 -0 -0 -0 -0 -0 -0 -0 -0 -0 -0 -0 -0 -0 -0 -0 -0 -0 -0 -0 -0 -0 -0 -0 -0 -0 -0 -0 -0 -0 -0 -0 -0 -0 -0 -0 -0 -0
-0 -0 -0 -0 -0 -0 -0 -0 -0 -0 -0 -0 -0 -0 -0 -0 -0 -0 -0 -0 -0 -0 -0 -0 -0 -0 -0 -0 -0 -0 -0 -0 -0 -0 -0 -0 -0 -0 -0 -0 -0 -0 -0 -0 -0 -0 -0
-0 -0 -0 -0 -0 -0 -0 -0 -0 -0 -0 -0 -0 -0 -0 -0 -0 -0 -0 -0 -0 -0 -0 -0 -0 -0 -0 -0 -0 -0 -0 -0 -0 -0 -0 -0 -0 -0 -0 -0 -0 -0 -0 -0 -0 -0 -0
-0 -0 -1 -0 -0 -0 -0 -0 -0 -0 -0 -0 -0 -0 -0 -0 -0 -0 -0 -0 -0 -0 -0 -0 -0 -0 -0 -0 -0 -0 -0 -0 -0 -0 -0 -0 -0 -0 -0 -0 -0 -0 -0 -0 -0 -0 -0
-0 -0 -0 -0 -0 -0 -0 -0 -0 -0 -0 -0 -0 -0 -0 -0 -0 -0 -0 -0 -0 -0 -0 -0 -0 -0 -0 -0 -0 -0 -0 -0 -0 -0 -0 -0 -0 -0 -0 -0 -0 -0 -0 -0 -0 -0 -0
-0 -1 -0 -0 -0 -0 -0 -1 -0 -1 -0 -0 -0 -0 -0 -0 -0 -0 -0 -0 -0 -0 -0 -0 -0 -0 -0 -0 -0 -0 -0 -0 -0 -0 -3 -0 -0 -0 -1 -2 -32 -42 -0 -0 -0 -0 -0
Wind_Speed
17 18 18 18 17 18 18 18 18 18 18 18 18 18 18 17 17 17 16 16 17 18 19 19 19 19 20 18 12 12 12 16 22 18 16 15 11 16 14 13 12 10 13 6 24 25 24
15 17 18 18 19 19 19 19 19 19 19 19 19 19 19 18 17 17 16 16 17 18 19 19 19 19 21 17 15 12 6 8 19 20 12 12 12 13 13 12 10 10 14 15 19 23 22
14 14 15 17 18 19 19 19 20 20 20 20 20 20 20 19 18 18 17 17 17 18 19 19 19 20 22 9 16 15 19 12 10 18 12 13 13 13 13 11 11 8 22 18 10 20 16
16 15 15 15 16 18 18 19 20 20 20 21 21 21 20 20 19 18 17 17 17 18 18 19 20 21 7 17 16 21 22 20 14 21 16 13 14 12 14 10 9 13 16 16 17 18 11
17 17 17 17 17 16 17 18 19 20 20 21 21 21 21 20 20 18 17 17 16 14 14 11 11 20 8 18 21 18 24 22 22 22 17 16 15 14 12 12 13 10 16 16 17 17 17
19 19 19 19 18 18 18 18 18 19 19 19 20 20 20 19 19 18 17 13 11 12 12 13 16 19 17 16 15 19 24 23 23 21 19 17 17 18 14 17 14 16 17 17 19 18 18
22 21 21 20 20 20 20 20 20 20 19 19 18 18 18 18 17 16 10 11 12 11 13 15 12 17 14 14 12 23 24 24 23 22 20 19 18 19 15 15 16 17 16 16 14 17 20
24 23 23 22 22 22 22 22 22 21 21 20 19 18 17 16 16 16 17 14 13 15 13 18 19 20 16 17 15 10 23 25 24 23 21 18 19 17 17 17 19 19 18 15 12 15 18
26 25 24 24 24 25 25 25 24 23 23 22 21 20 18 17 16 16 18 15 15 17 17 14 15 18 17 20 19 20 26 25 25 23 21 21 14 16 19 19 19 18 16 15 15 16 17
29 27 27 26 26 26 27 26 26 26 25 24 22 21 19 18 13 11 14 13 17 17 16 11 12 13 16 19 19 18 27 25 25 25 23 22 18 20 19 18 18 16 16 16 16 18 17
30 30 29 29 29 29 29 29 27 28 27 26 25 23 21 19 16 11 12 16 14 13 14 10 10 11 11 20 9 14 7 26 26 24 23 17 21 21 21 21 19 16 16 18 18 20 22
30 30 31 31 31 31 31 31 30 29 29 27 26 24 22 13 12 15 15 14 13 16 16 10 8 7 4 8 12 9 7 14 18 16 18 27 17 16 20 7 19 8 19 17 16 18 21
31 31 31 32 33 33 34 33 33 32 31 30 28 25 18 16 11 13 13 10 15 21 12 10 7 8 4 9 11 9 4 3 9 12 10 2 11 5 6 14 9 13 17 18 5 9 15
31 31 31 32 33 34 34 35 34 34 32 31 26 20 9 15 15 15 7 10 21 16 11 12 10 9 7 7 12 8 6 7 9 16 17 15 9 5 8 15 23 10 24 25 21 23 22
31 32 32 32 33 34 34 35 35 34 32 29 21 12 12 14 12 11 3 12 19 15 13 11 10 11 10 8 14 8 8 10 11 4 16 15 18 15 16 16 22 18 30 27 27 25 24
32 32 32 32 33 34 35 35 35 34 32 25 14 12 13 13 9 10 7 18 16 15 15 12 14 16 12 8 10 10 10 15 15 10 4 16 22 16 15 11 17 30 22 26 19 29 30
32 32 32 32 33 34 35 35 35 34 31 21 13 13 14 12 9 9 12 16 13 15 16 15 15 15 17 13 13 13 15 14 15 14 11 14 19 14 15 16 16 16 23 24 31 29 29
32 32 32 32 33 34 34 35 35 33 29 17 15 14 14 11 8 15 14 16 16 16 16 16 16 16 15 14 14 15 14 17 16 13 14 11 19 21 22 16 19 24 27 25 29 26 27
32 32 32 32 33 34 34 35 35 32 27 19 15 14 13 14 15 13 14 14 16 16 17 17 17 18 17 16 17 16 14 16 17 15 14 12 19 23 20 17 18 22 20 22 28 29 34
32 32 32 32 33 34 35 35 35 33 27 16 16 14 14 15 17 16 12 14 15 16 16 17 18 18 18 18 19 18 17 17 17 19 19 18 23 24 30 25 20 17 17 20 26 32 33
32 31 31 31 32 33 34 35 35 33 26 16 17 16 16 14 14 14 16 17 16 17 18 18 18 18 20 21 22 21 21 20 20 21 21 23 28 28 30 30 30 31 32 29 30 30 36
31 31 31 31 31 32 33 34 34 34 26 16 17 16 14 14 14 14 16 17 17 17 20 19 21 21 21 23 24 23 24 23 25 23 25 24 31 29 34 32 34 38 36 34 34 35 39
31 31 31 31 30 31 32 33 33 32 24 17 17 14 16 15 15 16 18 17 18 20 20 19 21 23 23 21 25 25 25 26 27 26 26 28 30 32 40 35 37 41 36 38 38 37 38
31 31 30 30 30 30 30 30 30 30 25 19 18 17 17 17 16 17 16 17 17 19 21 20 21 21 21 25 26 24 26 27 27 27 25 29 29 33 41 36 43 39 35 35 38 37 35
30 30 30 29 29 28 28 29 28 28 26 21 20 17 17 16 14 15 16 17 17 17 19 21 20 21 23 23 25 27 27 29 30 27 26 26 29 34 36 35 36 37 34 30 29 29 23
29 30 30 29 29 28 28 27 27 27 26 19 21 19 16 15 16 16 16 17 18 18 17 18 17 20 19 21 22 28 29 27 26 24 23 24 24 30 30 35 40 26 24 23 26 38 27
29 29 29 29 29 28 27 27 26 26 26 20 19 21 17 16 15 15 17 18 18 18 19 18 19 18 17 21 25 28 30 24 29 29 26 24 24 29 31 37 35 27 24 23 33 30 27
29 29 29 29 29 28 27 26 25 25 24 21 18 21 19 17 15 14 16 16 16 17 19 18 18 18 19 22 24 25 27 26 29 29 28 28 28 30 31 37 42 26 25 30 28 28 29
29 28 28 28 28 27 26 25 24 23 23 22 18 20 20 16 17 17 17 18 16 17 17 16 18 18 19 21 21 23 26 25 29 32 22 31 31 35 32 29 21 23 24 25 29 30 29
Wind_Direction
338 339 337 335 330 326 321 316 311 308 305 303 299 297 294 287 281 273 261 246 228 218 216 208 209 212 182 128 41 267 242 93 148 189 187 178 229 195 198 207 206 232 188 253 83 106 116
330 332 334 333 330 326 323 318 313 310 306 303 299 297 294 290 283 273 261 249 234 216 210 206 210 214 188 119 240 272 69 68 210 187 247 241 243 246 247 241 250 227 31 42 55 86 123
323 323 324 325 326 323 321 317 314 311 308 303 300 298 296 291 285 279 265 250 238 221 207 207 206 209 183 301 239 243 227 257 300 216 260 281 247 234 240 346 255 270 89 63 354 99 161
324 320 318 316 316 317 316 315 314 312 308 305 303 300 297 290 283 276 265 254 245 234 229 218 204 201 53 241 237 142 138 140 220 182 233 249 246 264 259 309 343 52 177 160 130 155 222
321 320 318 315 313 310 309 309 309 309 307 306 305 303 297 290 284 272 263 262 262 275 279 308 305 219 305 239 205 167 167 188 163 199 232 232 239 260 261 145 52 32 288 262 191 142 158
322 320 317 315 312 310 308 307 305 304 304 303 301 299 293 288 283 268 268 297 314 311 310 294 267 238 248 240 249 226 186 191 178 166 198 195 214 217 263 248 320 311 292 280 215 176 168
322 319 317 314 312 310 308 307 306 304 301 298 295 291 285 279 276 265 320 328 327 333 284 278 284 258 259 260 262 209 203 168 176 181 176 224 197 183 287 282 283 274 267 264 268 248 210
323 320 317 314 312 310 309 307 304 301 299 296 292 289 282 274 261 245 238 285 305 285 292 267 252 249 258 246 257 273 209 173 175 176 181 185 182 254 263 272 271 279 281 336 306 243 220
325 320 318 315 313 312 311 309 304 301 299 296 292 289 282 273 250 244 236 266 276 266 270 284 271 253 255 236 247 189 170 204 189 183 180 191 286 224 206 232 245 283 299 312 300 277 239
329 323 320 318 316 314 312 308 305 303 299 296 289 283 278 272 290 310 286 302 249 256 274 296 281 272 258 245 252 257 191 217 220 202 200 207 234 193 193 199 214 215 307 314 314 276 303
331 328 325 321 319 316 314 311 305 303 300 295 289 278 267 264 282 307 316 278 296 296 288 307 284 290 285 240 323 280 315 200 220 237 239 269 247 194 198 209 213 258 234 229 249 271 281
329 328 327 325 323 320 317 315 310 305 301 294 287 277 268 313 312 295 289 307 319 286 289 310 305 301 327 305 302 340 67 226 270 286 253 231 293 282 239 335 205 106 217 202 206 226 238
328 326 326 325 325 323 321 319 315 309 304 298 288 276 288 290 322 299 304 344 297 275 311 311 314 302 309 301 306 314 346 347 307 298 272 134 171 137 115 160 106 146 190 205 287 125 282
329 327 326 325 324 323 322 321 318 313 308 302 291 292 332 292 297 291 325 329 279 300 304 309 306 306 301 314 302 320 327 316 303 293 299 303 323 152 156 175 241 175 214 249 293 287 301
328 327 326 325 325 323 322 320 319 316 310 305 296 339 327 309 303 300 27 299 295 303 311 308 305 295 298 305 302 311 307 306 309 311 298 308 297 314 301 293 270 288 236 256 252 240 269
328 327 326 325 325 324 323 321 319 316 312 302 332 340 329 318 315 297 303 290 306 313 310 308 292 292 290 290 294 295 299 304 300 307 310 307 287 306 309 320 298 255 287 266 210 251 256
330 327 326 324 324 325 324 322 319 317 311 299 328 328 328 321 314 298 288 296 307 308 303 303 297 297 293 291 285 288 296 310 306 312 298 300 289 304 307 297 295 300 281 279 263 267 270
329 329 327 325 324 324 324 323 322 319 313 308 316 316 317 315 310 294 293 298 301 302 304 302 301 302 298 298 291 288 288 299 307 306 302 295 296 288 289 304 299 290 280 282 278 282 279
329 329 327 326 325 325 324 324 324 322 320 305 313 319 317 304 300 297 302 302 303 298 298 298 298 297 297 297 294 294 295 301 303 301 301 301 293 288 294 301 299 290 294 292 288 287 278
330 328 327 327 325 326 326 326 326 324 318 317 309 311 312 307 304 300 300 299 300 307 305 301 298 296 293 291 293 295 290 296 298 297 299 297 288 284 282 295 308 303 301 299 293 286 288
333 331 328 325 325 326 328 329 329 327 323 328 313 310 307 307 307 304 300 301 297 298 302 301 298 297 293 288 288 287 289 291 292 295 292 289 285 287 285 287 290 290 290 291 290 292 287
333 331 329 327 326 327 330 331 332 331 316 338 317 314 320 314 310 305 302 300 297 300 299 297 293 297 296 288 289 290 290 289 288 294 289 291 284 287 284 287 287 285 286 286 287 288 288
334 333 331 329 328 330 333 336 337 339 334 339 332 332 317 313 309 301 301 301 299 299 301 302 299 296 292 296 296 295 295 292 292 292 290 288 286 285 282 287 287 282 286 285 285 287 288
334 334 332 331 330 331 333 335 337 342 344 348 339 324 317 311 311 309 309 307 305 303 298 301 303 299 305 304 300 297 293 290 288 287 287 287 288 287 283 287 279 289 294 294 289 290 292
330 330 331 331 330 330 333 334 337 339 339 348 344 331 320 312 319 318 314 312 312 311 306 302 304 307 309 304 298 295 291 288 285 283 283 284 286 286 282 283 286 287 295 295 295 295 300
327 328 329 330 331 331 332 334 335 336 336 341 346 337 328 318 317 319 317 317 313 313 313 312 317 315 311 302 296 290 288 291 293 296 295 284 282 280 283 284 285 298 309 310 302 289 302
327 330 330 331 333 334 332 332 334 336 334 335 341 335 331 322 323 322 318 316 320 318 313 317 316 314 315 302 293 291 290 294 290 289 293 287 280 277 280 282 286 300 306 310 291 295 308
327 329 332 334 337 337 336 333 331 330 330 329 340 333 329 324 327 324 325 324 328 326 317 322 318 316 310 301 300 297 295 296 294 292 293 287 285 283 282 282 282 307 304 292 303 308 306
327 327 330 333 335 337 336 329 323 322 321 318 330 330 329 326 322 322 322 322 324 329 333 333 324 322 320 311 308 305 299 301 299 293 299 288 288 287 288 290 304 312 308 310 307 304 306